Wind_Speed
39 40 41 42 42 44 45 47 48 50 51 52 52 53 54 54 55 55 55 56 56 57 58 58 59 59 60 60 60 60 60 60 59 59 60 60 60 61 61 60 59 58 56
39 40 42 43 45 46 48 50 51 53 55 55 56 56 56 56 56 57 57 57 57 57 56 56 57 57 57 57 58 58 58 58 58 58 58 58 58 59 58 56 53 51 48
41 43 44 46 47 49 51 53 55 56 56 57 57 57 57 57 57 57 57 57 56 55 54 54 54 54 54 55 55 56 56 57 57 56 55 55 54 53 50 48 44 41 39
44 45 47 49 51 53 54 55 56 57 57 57 58 58 58 58 57 56 56 55 54 53 52 52 52 52 53 53 54 54 54 54 53 53 51 49 47 44 41 38 35 35 34
47 48 49 51 52 54 55 56 57 57 58 57 57 57 57 56 55 54 53 52 51 51 51 51 51 52 52 52 52 51 50 50 48 46 43 40 38 35 34 33 33 32 32
47 49 50 52 53 55 56 56 56 57 56 56 56 55 54 53 52 51 50 50 49 50 50 50 50 50 50 49 48 47 45 44 41 37 34 32 30 30 30 30 30 30 30
48 49 51 53 54 55 55 55 55 55 54 53 52 52 51 50 49 49 48 48 49 49 49 49 49 48 46 45 43 42 40 37 33 29 27 26 26 27 27 27 28 28 28
49 50 52 53 53 53 53 53 52 51 50 50 49 49 48 47 48 48 48 48 48 48 47 46 45 43 41 39 37 35 31 29 26 24 23 23 24 24 25 25 25 25 26
49 50 50 50 51 51 50 49 49 48 48 47 47 47 47 47 47 47 47 47 46 45 43 41 38 35 33 30 28 26 24 22 21 20 21 21 22 22 22 22 22 22 22
47 48 48 48 48 47 47 46 46 46 46 45 45 45 46 46 45 45 44 43 41 39 36 33 29 26 24 23 21 19 18 18 18 19 20 20 20 20 20 20 20 20 19
44 45 44 44 44 44 44 44 44 44 44 44 44 44 44 43 42 40 37 35 32 30 27 24 21 19 17 15 13 13 14 15 16 16 17 17 18 18 19 18 18 18 18
41 41 41 41 42 42 42 42 43 43 43 42 41 40 38 36 33 31 28 26 24 22 19 17 15 13 11 10 10 11 12 13 14 14 15 16 18 17 17 17 17 18 18
38 39 39 40 41 41 42 41 41 40 38 36 34 32 30 28 25 23 21 19 17 15 13 11 9 7 7 7 8 10 12 12 13 14 15 16 17 17 17 17 17 17 17
36 37 39 40 40 40 39 37 35 33 31 29 26 25 23 21 20 18 16 13 11 9 8 6 4 4 6 7 8 10 11 12 13 14 15 16 17 17 17 17 17 17 16
36 37 38 37 36 34 32 29 27 25 23 21 20 18 17 16 14 12 9 7 5 4 2 2 3 5 6 7 9 10 11 12 14 15 17 17 17 18 18 18 17 17 17
34 33 33 31 29 26 24 21 19 18 16 15 14 13 12 10 8 5 3 1 1 2 3 4 5 6 7 8 10 11 12 13 15 16 17 17 18 19 19 19 19 19 19
29 28 26 24 22 19 17 15 13 12 11 10 9 8 6 4 2 1 3 4 4 5 6 6 7 8 9 10 11 12 13 14 16 17 17 18 19 20 20 21 21 20 20
23 22 19 16 14 12 11 10 9 8 7 6 5 4 3 3 4 5 6 7 7 7 8 8 9 10 10 11 13 14 15 16 17 17 18 19 20 20 21 22 22 22 22
18 16 13 12 11 9 8 7 7 7 6 5 5 5 6 7 8 8 9 9 9 9 10 10 11 11 12 13 14 15 17 17 18 19 19 20 20 21 21 22 23 23 23
15 13 11 10 9 8 8 8 7 7 7 7 8 8 9 10 10 11 11 10 10 11 11 12 12 13 13 14 16 17 18 19 19 20 21 21 22 22 22 22 22 23 23
13 12 11 10 10 9 9 9 9 9 9 10 10 11 11 11 12 12 12 12 12 12 12 13 13 14 15 16 17 18 19 19 20 21 22 22 23 23 23 23 22 22 22
12 12 11 11 11 11 11 11 11 11 11 11 11 11 11 12 12 12 12 12 12 12 12 13 14 15 16 16 17 18 18 19 20 21 22 23 23 24 24 24 23 22 22
12 12 12 12 12 11 12 12 12 12 12 12 11 12 12 12 12 12 12 13 13 13 13 14 14 15 16 16 17 18 19 19 20 20 21 21 22 23 23 23 23 22 22
13 12 12 12 11 11 12 12 12 12 12 12 12 12 12 12 12 12 12 12 12 13 13 14 14 14 15 16 16 17 17 18 19 19 20 20 20 21 21 22 22 22 22
14 13 12 11 11 11 11 11 12 12 12 12 12 12 12 12 12 12 12 12 12 13 13 13 13 14 14 14 15 15 16 16 17 17 18 18 19 19 20 20 20 20 20
17 15 13 12 11 11 11 11 12 12 12 12 12 12 12 12 12 12 12 12 12 12 12 12 12 12 12 13 13 13 14 15 15 16 16 17 17 18 18 18 18 19 19
Wind_Direction
273 276 280 283 288 291 294 296 297 298 299 300 301 300 300 298 297 295 295 294 293 292 292 291 290 290 291 291 292 293 293 293 293 293 292 292 291 291 291 291 290 288 287
275 278 283 286 289 293 295 296 297 298 299 299 299 299 298 297 297 296 295 295 294 293 293 292 292 292 292 293 293 294 294 295 295 295 294 294 294 294 293 293 292 290 288
278 281 285 288 290 292 295 296 297 297 298 298 298 298 298 297 297 297 296 296 295 295 294 294 294 294 295 295 295 296 296 296 296 296 296 296 296 295 295 294 293 291 289
280 283 286 289 291 293 294 295 296 296 297 297 297 297 297 297 297 296 296 296 296 295 295 295 296 296 296 297 297 298 298 298 298 299 299 298 297 297 297 296 295 293 291
282 285 288 290 291 292 293 294 295 295 296 296 296 296 296 296 296 296 296 296 296 296 297 297 297 298 298 299 299 299 299 300 300 301 300 299 299 299 298 297 296 294 293
285 287 288 290 291 292 292 293 294 295 295 295 295 295 296 296 296 296 297 297 297 298 298 299 299 299 300 300 301 301 301 302 302 302 301 301 301 300 299 299 298 296 295
287 288 289 290 291 291 292 293 294 294 295 295 295 295 296 296 296 297 297 298 298 298 299 300 300 301 301 302 302 302 303 304 304 303 303 303 303 303 303 302 301 300 299
288 289 290 290 291 292 292 293 294 294 294 295 295 295 296 296 297 297 298 298 298 299 299 300 301 301 302 303 303 304 305 306 307 309 309 309 309 309 308 307 306 305 303
289 290 291 292 293 293 293 293 293 294 294 294 295 295 296 296 297 298 298 298 299 299 300 301 302 302 303 303 304 305 307 309 312 315 317 317 317 317 316 315 314 313 310
291 292 293 293 293 293 293 293 294 294 294 295 295 296 297 297 298 298 298 299 300 301 301 302 303 303 302 303 305 308 311 315 319 321 323 324 325 325 324 324 323 321 318
293 294 294 294 294 294 294 295 295 295 295 296 296 297 297 297 297 297 298 300 300 301 302 303 305 305 305 307 311 317 322 325 327 329 332 333 333 333 334 333 331 329 326
294 294 294 294 295 295 295 295 296 296 297 297 297 297 297 297 298 298 299 300 300 301 302 304 307 308 312 318 326 333 336 338 339 341 342 342 343 343 342 340 338 336 334
296 296 296 297 297 297 297 297 298 298 298 298 298 298 298 298 298 299 299 300 299 300 303 307 310 318 330 339 345 348 349 351 353 353 352 352 352 351 351 350 348 348 347
299 299 299 299 300 299 299 299 299 299 299 299 299 298 299 300 300 299 299 298 298 301 306 313 329 349 358 2 3 3 4 4 4 4 2 2 3 3 2 3 2 3 5
303 304 304 303 303 302 302 301 301 301 301 301 301 301 302 302 302 302 298 297 301 307 329 19 24 22 22 21 19 19 17 14 14 13 12 12 15 16 17 18 20 22 25
309 309 309 308 307 306 305 305 304 304 303 304 305 306 306 307 307 306 306 318 35 81 75 59 49 44 42 39 34 31 28 25 24 23 24 26 28 29 31 33 35 37 40
315 315 315 314 313 313 312 312 312 312 314 315 316 317 321 326 348 69 95 103 101 90 77 69 63 59 54 49 44 40 36 34 33 33 36 36 37 40 42 42 44 47 50
322 322 323 325 327 328 329 330 331 332 335 340 347 2 38 76 93 99 102 102 96 85 78 74 70 66 61 55 49 45 43 41 40 41 41 43 44 46 47 48 49 51 54
336 336 339 342 346 348 352 357 0 5 16 31 50 68 83 92 97 99 100 98 90 85 80 77 74 69 63 59 54 51 50 49 48 48 48 48 49 50 51 52 52 54 56
353 356 360 5 10 18 24 26 32 42 54 64 74 84 90 93 94 96 96 92 88 85 82 78 75 72 68 65 61 58 57 55 54 53 52 52 52 53 53 54 54 55 57
11 16 22 29 36 42 44 48 56 63 69 75 81 86 90 92 95 94 91 90 89 87 83 79 77 75 73 70 67 64 62 59 57 56 55 55 54 54 54 54 55 56 57
26 33 39 44 48 51 56 61 65 68 74 79 82 85 89 93 95 93 91 90 88 86 83 81 80 78 75 73 69 67 64 61 58 57 55 54 54 54 54 54 55 56 57
38 43 46 50 55 59 62 65 67 70 74 78 82 86 90 94 95 95 93 90 88 87 85 83 82 79 76 74 71 68 64 61 57 55 53 52 51 52 52 52 53 54 56
43 47 51 54 58 63 65 67 68 71 75 79 84 88 92 95 95 95 94 92 89 88 87 85 82 80 76 73 70 66 63 60 56 53 51 50 49 49 49 50 51 53 55
45 47 51 55 59 63 66 68 70 73 77 81 85 89 93 95 95 94 94 93 92 90 88 85 82 79 75 71 67 63 59 55 51 48 47 46 47 46 46 47 48 50 52
45 47 51 55 60 65 68 70 73 77 80 83 86 90 93 94 94 94 95 95 94 92 89 85 82 77 72 67 63 58 55 51 48 45 44 44 45 44 44 45 46 48 50
Height
5792 5790 5787 5784 5781 5778 5774 5771 5767 5764 5760 5756 5752 5747 5743 5739 5734 5729 5724 5719 5714 5708 5703 5697 5692 5686 5680 5674 5668 5662 5656 5650 5646 5640 5632 5625 5619 5613 5607 5601 5596 5591 5587
5782 5780 5777 5774 5770 5767 5763 5759 5755 5751 5747 5742 5738 5733 5728 5724 5718 5714 5709 5703 5698 5692 5687 5681 5676 5670 5665 5659 5653 5647 5641 5634 5628 5623 5616 5609 5602 5596 5590 5585 5579 5574 5570
5772 5769 5766 5763 5759 5755 5751 5747 5742 5738 5733 5728 5724 5719 5714 5709 5703 5698 5693 5688 5682 5677 5671 5666 5661 5656 5650 5644 5638 5632 5625 5619 5612 5606 5600 5593 5587 5580 5575 5570 5565 5561 5557
5760 5758 5754 5751 5747 5743 5739 5734 5729 5724 5719 5714 5709 5704 5699 5694 5689 5684 5678 5673 5668 5663 5657 5652 5647 5641 5635 5629 5623 5617 5610 5604 5598 5591 5585 5579 5573 5567 5562 5558 5555 5551 5547
5748 5746 5742 5738 5734 5730 5725 5720 5715 5710 5705 5700 5695 5690 5685 5680 5674 5669 5664 5659 5654 5649 5644 5638 5633 5628 5621 5615 5609 5603 5597 5591 5585 5579 5573 5568 5563 5558 5553 5549 5545 5542 5538
5736 5733 5729 5725 5720 5716 5711 5706 5701 5696 5691 5685 5680 5675 5670 5666 5661 5656 5651 5646 5641 5636 5630 5625 5619 5614 5608 5602 5597 5591 5585 5579 5574 5569 5564 5559 5555 5550 5546 5541 5537 5533 5530
5723 5719 5715 5711 5706 5701 5697 5692 5686 5681 5676 5671 5666 5661 5657 5652 5647 5643 5638 5633 5629 5623 5618 5612 5607 5601 5596 5591 5585 5580 5575 5569 5565 5561 5557 5553 5548 5544 5539 5534 5530 5525 5521
5710 5705 5701 5697 5692 5687 5682 5677 5672 5667 5663 5658 5653 5648 5644 5640 5635 5630 5626 5621 5616 5611 5606 5601 5596 5590 5586 5581 5576 5571 5567 5562 5558 5555 5551 5547 5542 5537 5533 5528 5523 5519 5514
5696 5692 5687 5683 5678 5673 5669 5664 5659 5654 5649 5645 5640 5636 5631 5627 5623 5618 5613 5609 5604 5600 5595 5591 5586 5581 5577 5573 5569 5565 5561 5558 5554 5550 5546 5542 5537 5532 5527 5523 5518 5513 5509
5683 5679 5674 5670 5665 5660 5655 5651 5646 5641 5637 5632 5628 5623 5619 5615 5611 5606 5601 5597 5593 5589 5585 5582 5578 5575 5571 5568 5564 5561 5558 5554 5551 5547 5542 5538 5533 5529 5524 5519 5514 5509 5504
5671 5666 5662 5657 5652 5648 5643 5638 5634 5629 5625 5621 5617 5612 5608 5604 5600 5596 5592 5588 5584 5581 5578 5575 5572 5569 5567 5564 5561 5559 5556 5552 5548 5544 5540 5535 5531 5526 5521 5516 5511 5506 5501
5660 5655 5650 5646 5641 5636 5631 5627 5622 5618 5614 5609 5605 5601 5597 5594 5590 5587 5584 5581 5578 5575 5573 5570 5568 5566 5564 5562 5560 5557 5554 5550 5546 5542 5538 5534 5529 5524 5519 5514 5509 5504 5499
5649 5645 5640 5635 5630 5625 5620 5616 5611 5607 5603 5599 5595 5592 5589 5586 5583 5580 5578 5576 5573 5571 5569 5568 5566 5564 5563 5561 5559 5556 5553 5549 5546 5542 5538 5533 5528 5523 5518 5513 5508 5502 5497
5640 5634 5629 5624 5619 5614 5609 5605 5601 5597 5594 5590 5587 5584 5582 5579 5577 5575 5573 5572 5570 5569 5568 5566 5565 5564 5562 5561 5558 5556 5553 5549 5546 5542 5538 5533 5528 5523 5518 5513 5507 5502 5497
5630 5625 5619 5613 5608 5604 5600 5596 5592 5589 5587 5584 5581 5579 5577 5575 5572 5571 5569 5569 5568 5567 5567 5566 5565 5564 5563 5561 5559 5556 5553 5550 5547 5543 5539 5534 5529 5524 5519 5514 5509 5504 5499
5622 5616 5610 5604 5600 5596 5593 5590 5586 5584 5582 5579 5577 5575 5573 5571 5570 5569 5568 5568 5568 5568 5567 5567 5566 5565 5563 5562 5560 5557 5554 5551 5548 5544 5540 5536 5531 5526 5521 5517 5512 5507 5502
5614 5609 5603 5598 5594 5591 5588 5585 5583 5581 5579 5576 5574 5573 5571 5570 5569 5569 5569 5569 5569 5569 5569 5568 5567 5566 5565 5563 5561 5559 5556 5553 5550 5547 5543 5539 5534 5530 5525 5520 5516 5511 5507
5609 5604 5599 5595 5591 5588 5585 5583 5581 5579 5577 5575 5574 5572 5571 5571 5571 5571 5571 5571 5571 5571 5570 5570 5569 5568 5567 5565 5564 5561 5559 5556 5553 5549 5546 5542 5538 5534 5530 5525 5521 5517 5513
5605 5601 5597 5594 5590 5587 5585 5583 5581 5579 5577 5576 5575 5574 5573 5573 5573 5573 5573 5573 5573 5573 5573 5572 5572 5571 5570 5568 5566 5564 5561 5559 5556 5553 5549 5546 5542 5538 5534 5531 5526 5522 5519
5604 5600 5597 5594 5591 5588 5586 5584 5582 5580 5579 5578 5577 5576 5576 5576 5576 5576 5576 5576 5576 5576 5576 5575 5574 5574 5573 5571 5569 5567 5565 5563 5560 5557 5554 5550 5547 5543 5539 5536 5532 5529 5525
5605 5601 5598 5595 5592 5590 5588 5586 5584 5583 5582 5581 5580 5579 5579 5579 5579 5579 5579 5579 5579 5579 5579 5578 5578 5577 5576 5575 5573 5571 5569 5567 5564 5561 5558 5555 5552 5548 5545 5541 5538 5534 5531
5606 5603 5600 5598 5595 5593 5591 5590 5588 5587 5585 5585 5584 5583 5583 5583 5583 5583 5583 5583 5583 5583 5583 5582 5582 5581 5580 5579 5577 5575 5574 5571 5569 5566 5563 5560 5557 5554 5550 5547 5543 5540 5537
5609 5606 5603 5601 5599 5597 5595 5594 5592 5591 5589 5588 5588 5587 5587 5587 5587 5587 5587 5587 5587 5587 5586 5586 5586 5585 5584 5583 5581 5580 5578 5576 5574 5571 5568 5565 5562 5559 5556 5552 5549 5546 5543
5612 5609 5607 5605 5603 5601 5599 5597 5596 5594 5593 5592 5591 5591 5591 5591 5591 5591 5591 5591 5591 5590 5590 5590 5590 5589 5588 5587 5586 5584 5582 5580 5578 5575 5573 5570 5567 5564 5561 5558 5555 5552 5549
5615 5612 5610 5608 5606 5604 5603 5601 5600 5598 5597 5596 5595 5595 5595 5595 5595 5595 5595 5595 5595 5594 5594 5594 5594 5593 5592 5591 5590 5588 5586 5584 5582 5580 5577 5574 5571 5568 5565 5563 5560 5557 5554
5618 5615 5613 5610 5609 5607 5606 5605 5603 5602 5601 5600 5599 5599 5599 5598 5598 5598 5598 5598 5598 5598 5598 5598 5597 5596 5596 5594 5593 5591 5590 5588 5585 5583 5580 5578 5575 5572 5570 5567 5564 5561 5559